Location: Astronomy Club of Akron Observatory
(40.9700°N, 81.5606°W)
Time: 16:13:54
(UTC-05:00)

Daily predictions for brighter satellites

Satellite Brightness Start Highest point End
(mag) Time Altitude Azimuth Time Altitude Azimuth Time Altitude Azimuth
Cosmos 1833 Rocket 3.6 17:19:07 10° N 17:23:49 26° NE 17:28:30 10° ESE
IRS-1A Rocket 4.3 17:22:45 10° SSE 17:28:15 88° ENE 17:33:49 10° NNW
Cosmos 2082 Rocket 2.8 17:25:55 10° N 17:31:04 34° ENE 17:36:12 10° ESE
IDEFIX/ARIANE 42P 2.7 17:27:09 10° SE 17:32:08 50° ENE 17:37:08 10° N
SL-8 Rocket 4.1 17:28:28 10° N 17:34:38 82° W 17:40:47 10° S
SL-27 R/B 4.3 17:31:55 10° NW 17:35:20 37° WSW 17:38:40 10° S
Thor Agena Rocket 3.8 17:31:31 10° NNE 17:36:40 55° ESE 17:41:49 10° S
Tiangong 1 1.0 17:36:28 10° WSW 17:39:30 81° SSE 17:42:20 11° ENE
Cosmos 1743 4.0 17:36:56 10° NNE 17:39:53 20° ENE 17:42:48 10° ESE
Cosmos 1500 3.6 17:36:14 10° N 17:39:54 41° ENE 17:43:33 10° SSE
Cosmos 2251 Rocket 4.1 17:34:54 10° NNW 17:40:12 66° WSW 17:45:26 10° S
Cosmos 375 4.3 17:36:40 10° NNW 17:41:07 79° NE 17:44:57 10° SE
NOSS 2-1 (E) 4.4 17:37:55 10° S 17:41:15 28° ESE 17:44:42 11° ENE
Cosmos 2366 rocket 4.1 17:41:52 10° N 17:48:15 88° W 17:54:32 10° S
AQUARIUS 4.1 17:45:35 10° SSE 17:50:03 73° ENE 17:54:33 10° N
Cosmos 1484 Rocket 3.5 17:50:57 10° SE 17:54:10 28° ENE 17:57:23 10° N
Cosmos 1238 Rocket 3.6 17:55:58 10° SSW 17:58:45 39° W 18:01:48 10° N
Meteor 2-21 4.4 17:53:05 10° N 17:59:13 64° E 18:05:16 10° SSE
CZ-4 R/B 4.4 17:55:22 10° SSE 17:59:27 62° ENE 18:03:34 10° N
Cosmos 1975 2.9 17:55:43 10° N 17:59:48 86° W 18:03:49 10° S
USA 234 3.3 17:53:21 10° NE 17:59:56 89° NW 18:06:29 10° SW
CZ-4 R/B 2.3 18:02:28 10° S 18:06:33 54° W 18:10:36 10° NNW
Meteor 1-13 Rocket 4.3 18:02:50 10° S 18:08:27 62° E 18:14:12 10° NNE
MSX 3.8 18:03:51 10° SSE 18:09:34 75° ENE 18:15:19 10° N
Abrixas 2.3 18:10:15 10° WNW 18:13:13 87° NE 18:15:00 22° ESE
CORIOLIS 4.3 18:08:21 10° S 18:13:45 78° WSW 18:19:10 10° NNW
NOSS 3-4 (A) 4.1 18:07:17 10° NNW 18:13:57 45° NE 18:21:00 10° ESE
NOSS 3-4 (C) 4.1 18:07:23 10° NNW 18:14:03 45° NE 18:21:05 10° ESE
MONITOR-E 4.1 18:10:55 10° SSE 18:14:04 64° ENE 18:17:15 10° N
COSMO-SKYMED 1 2.8 18:09:56 10° NNE 18:14:07 46° E 18:18:17 10° S
Meteor 2-4 Rocket 4.1 18:09:23 10° SSE 18:14:18 38° E 18:19:06 10° NNE
CZ-2C R/B 3.0 18:09:46 10° S 18:14:45 64° W 18:19:52 10° NNW
Meteor 2-14 Rocket 4.4 18:11:11 10° N 18:17:19 65° E 18:23:23 10° SSE
COSMOS 2441 4.3 18:13:09 10° SSE 18:18:00 76° ENE 18:22:55 10° N
CZ-3B DEB 3.1 18:14:26 10° W 18:18:24 45° NNW 18:25:57 15° NE
Cosmos 407 Rocket 4.3 18:16:09 10° N 18:20:28 26° ENE 18:21:59 23° E
Cosmos 2056 Rocket 4.0 18:15:54 10° S 18:20:52 39° ESE 18:23:51 21° NE
Cosmos 1821 Rocket 4.0 18:15:49 10° N 18:21:46 53° E 18:27:41 10° SSE
Timation 2 Rocket 4.2 18:16:54 10° NNW 18:23:47 86° WSW 18:30:40 10° SSE
Cosmos 921 Rocket 3.0 18:20:41 10° SSW 18:24:55 86° WNW 18:28:57 12° NNE
Cosmos 1025 Rocket 3.2 18:21:01 10° SSE 18:25:13 47° E 18:28:12 18° NNE
Cosmos 1605 Rocket 4.4 18:26:37 10° N 18:32:22 36° ENE 18:37:59 10° SE
Cosmos 1624 Rocket 4.0 18:28:47 10° S 18:33:49 56° ESE 18:36:48 24° NE
YAOGAN 1 4.3 18:34:05 10° SSW 18:38:02 35° W 18:42:03 10° NNW
Cosmos 1371 Rocket 3.9 18:34:09 10° SSW 18:39:30 79° ESE 18:43:24 19° NNE
Cosmos 2297 4.2 18:34:24 10° SW 18:39:57 57° WNW 18:45:17 11° NNE
Meteor 2-16 Rocket 4.4 18:36:17 10° N 18:42:25 88° W 18:48:30 10° S
Nadezhda 3 Rocket 4.5 18:42:11 10° SSW 18:48:18 61° W 18:54:33 10° N
METEOR-M 4.2 18:43:35 10° SE 18:48:43 52° ENE 18:53:54 10° N
Cosmos 2278 Rocket 4.1 18:45:16 10° WSW 18:49:51 25° NW 18:54:29 10° N
Cosmos 1666 2.6 18:50:23 10° N 18:54:17 86° E 18:58:09 10° S
BREEZE-M R/B 4.4 18:45:36 10° W 18:55:01 48° NNW 18:57:05 33° NNE
GEOS 3 Rocket 3.6 19:00:07 52° ENE 19:00:41 55° NE 19:05:41 10° NNW
ISS -0.5 19:00:25 10° NNW 19:00:43 11° NNW 19:00:43 11° NNW
SKYMED 2 4.4 18:58:26 13° N 19:02:11 50° WNW 19:06:22 10° SSW
Delta 2 Rocket 4.2 19:02:03 10° WSW 19:05:32 37° S 19:05:39 37° S
Cosmos 1833 Rocket 3.7 19:02:35 10° NW 19:07:58 47° WSW 19:13:18 10° S
Cosmos 1727 Rocket 3.9 19:03:44 10° S 19:09:47 57° E 19:10:52 50° NE
Cosmos 1452 Rocket 4.3 19:04:52 10° S 19:08:13 34° SSE 19:08:13 34° SSE
Cosmos 1190 Rocket 3.9 19:06:14 10° NNW 19:11:31 88° ENE 19:15:36 17° SSE
Cosmos 2082 Rocket 3.8 19:10:01 10° NW 19:15:06 35° WSW 19:20:11 10° SSW
Tiangong 1 3.5 19:12:47 10° W 19:14:01 22° WNW 19:14:01 22° WNW
Cosmos 1892 Rocket 3.6 19:13:16 10° S 19:17:15 72° SW 19:17:15 72° SW
Meteor 1-28 Rocket 4.2 19:21:17 44° WNW 19:21:19 44° WNW 19:24:55 10° SSW
FALCON 9 R/B 3.4 19:00:36 10° W 19:21:59 61° S 19:24:36 41° SE
Cosmos 1726 Rocket 4.0 19:20:45 10° NNW 19:25:09 61° W 19:29:32 10° S
Okean 2 4.4 19:26:30 10° SSW 19:30:08 46° W 19:30:08 46° W
USA 234 4.3 19:40:41 29° N 19:42:26 34° NNW 19:48:10 10° W
Cosmos 2369 Rocket 3.3 19:47:40 10° SSW 19:50:46 34° SSW 19:50:46 34° SSW
BREEZE M DEB (TANK) 4.4 20:11:36 10° WNW 20:16:49 72° SSW 20:18:05 64° SSE
ATLAS 3B CENTAUR R/B 4.4 20:09:30 10° W 20:21:40 29° SSW 20:23:21 27° SSW
